Location: Brachbach
(49.1847°N, 9.7240°E)
Time: 03:49:07
(UTC+00:00)

SL-27 R/B - Pass Details

Date: 23 May 2024
Orbit: 330 x 354 km, 74.7° (Epoch: 13 June)

Event Time Altitude Azimuth Distance (km) Brightness Sun altitude
Exits shadow 02:43:50 - 238° (WSW) 1,354 4.2 -6.5°
Reaches altitude 10° 02:44:05 10° 240° (WSW) 1,266 4.0 -6.5°
Maximum altitude 02:46:25 25° 299° (WNW) 731 3.3 -6.2°
Drops below altitude 10° 02:48:47 10° 358° (N) 1,273 5.3 -5.9°
Sets 02:50:57 0° 13° (NNE) 2,115 6.8 -5.7°
